| time (UTC) | temp F | wind direction | speed MPH | gust MPH | rain 1hr in | rain 24hr in | rain mn in | humidity % | barometer mb |
| 20260505064603 | 58 | 144 | 4.0 | 10.0 | 0.00 | 0.00 | 0.00 | 62 | 1009.5 |
| 20260505063100 | 58 | 155 | 7.0 | 14.0 | 0.00 | 0.00 | 0.00 | 61 | 1009.5 |
| 20260505061611 | 58 | 182 | 7.0 | 16.0 | 0.00 | 0.00 | 0.00 | 61 | 1009.3 |
| 20260505054605 | 59 | 155 | 7.0 | 18.0 | 0.00 | 0.00 | 0.00 | 57 | 1008.8 |
| 20260505053112 | 58 | 161 | 4.0 | 7.0 | 0.00 | 0.00 | 0.00 | 55 | 1008.4 |
| 20260505051558 | 59 | 168 | 2.0 | 6.0 | 0.00 | 0.00 | 0.00 | 54 | 1008.2 |
| 20260505041614 | 61 | 148 | 7.0 | 14.0 | 0.00 | 0.00 | 0.00 | 49 | 1007.6 |
| 20260505034601 | 63 | 148 | 3.0 | 8.0 | 0.00 | 0.00 | 0.00 | 46 | 1007.2 |
| 20260505033100 | 63 | 163 | 4.0 | 10.0 | 0.00 | 0.00 | 0.00 | 44 | 1007.0 |
| 20260505031607 | 64 | 161 | 2.0 | 6.0 | 0.00 | 0.00 | 0.00 | 41 | 1006.6 |
| 20260505030100 | 65 | 173 | 1.0 | 5.0 | 0.00 | 0.00 | 0.00 | 38 | 1006.3 |
| 20260505024558 | 66 | 169 | 3.0 | 6.0 | 0.00 | 0.00 | 0.00 | 37 | 1006.2 |
| 20260505023103 | 67 | 160 | 3.0 | 7.0 | 0.00 | 0.00 | 0.00 | 36 | 1006.0 |
| 20260505021600 | 68 | 163 | 4.0 | 9.0 | 0.00 | 0.00 | 0.00 | 36 | 1006.1 |
| 20260505020059 | 70 | 215 | 4.0 | 10.0 | 0.00 | 0.00 | 0.00 | 34 | 1005.8 |
| 20260505014603 | 71 | 197 | 6.0 | 14.0 | 0.00 | 0.00 | 0.00 | 32 | 1005.8 |
| 20260505013101 | 72 | 165 | 7.0 | 13.0 | 0.00 | 0.00 | 0.00 | 30 | 1005.8 |
| 20260505011559 | 73 | 165 | 5.0 | 11.0 | 0.00 | 0.00 | 0.00 | 30 | 1005.9 |
| 20260505010058 | 73 | 229 | 5.0 | 12.0 | 0.00 | 0.00 | 0.00 | 29 | 1005.9 |
| 20260505004600 | 73 | 180 | 7.0 | 15.0 | 0.00 | 0.00 | 0.00 | 30 | 1006.1 |
| 20260505003101 | 73 | 163 | 5.0 | 16.0 | 0.00 | 0.00 | 0.00 | 31 | 1006.3 |
| 20260505001559 | 73 | 202 | 6.0 | 15.0 | 0.00 | 0.00 | 0.00 | 32 | 1006.4 |
| 20260505000109 | 74 | 200 | 8.0 | 17.0 | 0.00 | 0.00 | 0.00 | 29 | 1006.4 |
| 20260504234634 | 74 | 217 | 9.0 | 18.0 | 0.00 | 0.00 | 0.00 | 29 | 1006.5 |
| 20260504233104 | 74 | 225 | 7.0 | 15.0 | 0.00 | 0.00 | 0.00 | 28 | 1006.6 |
| 20260504231606 | 74 | 206 | 6.0 | 16.0 | 0.00 | 0.00 | 0.00 | 27 | 1006.6 |
| 20260504230100 | 75 | 208 | 8.0 | 19.0 | 0.00 | 0.00 | 0.00 | 27 | 1006.5 |
| 20260504224603 | 74 | 188 | 9.0 | 18.0 | 0.00 | 0.00 | 0.00 | 30 | 1006.6 |
| 20260504223100 | 75 | 207 | 9.0 | 23.0 | 0.00 | 0.00 | 0.00 | 30 | 1006.8 |
| 20260504221607 | 76 | 239 | 5.0 | 13.0 | 0.00 | 0.00 | 0.00 | 29 | 1006.7 |
| 20260504220059 | 76 | 234 | 4.0 | 14.0 | 0.00 | 0.00 | 0.00 | 25 | 1006.9 |
| 20260504214558 | 77 | 279 | 4.0 | 13.0 | 0.00 | 0.00 | 0.00 | 26 | 1007.0 |
| 20260504213058 | 77 | 300 | 5.0 | 12.0 | 0.00 | 0.00 | 0.00 | 26 | 1007.2 |
| 20260504211557 | 76 | 234 | 3.0 | 11.0 | 0.00 | 0.00 | 0.00 | 28 | 1007.5 |
| 20260504210110 | 76 | 199 | 6.0 | 11.0 | 0.00 | 0.00 | 0.00 | 25 | 1007.5 |
| 20260504204603 | 77 | 228 | 4.0 | 11.0 | 0.00 | 0.00 | 0.00 | 25 | 1007.7 |
| 20260504203058 | 76 | 316 | 4.0 | 10.0 | 0.00 | 0.00 | 0.00 | 26 | 1007.8 |
| 20260504201559 | 75 | 134 | 5.0 | 15.0 | 0.00 | 0.00 | 0.00 | 25 | 1008.0 |
| 20260504200101 | 75 | 269 | 3.0 | 12.0 | 0.00 | 0.00 | 0.00 | 28 | 1008.1 |
| 20260504194609 | 75 | 333 | 9.0 | 16.0 | 0.00 | 0.00 | 0.00 | 30 | 1008.2 |
| 20260504193102 | 75 | 281 | 4.0 | 13.0 | 0.00 | 0.00 | 0.00 | 33 | 1008.5 |
| 20260504191558 | 75 | 306 | 7.0 | 15.0 | 0.00 | 0.00 | 0.00 | 31 | 1008.6 |
| 20260504190128 | 74 | 323 | 6.0 | 16.0 | 0.00 | 0.00 | 0.00 | 33 | 1008.7 |
| 20260504184600 | 74 | 19 | 5.0 | 10.0 | 0.00 | 0.00 | 0.00 | 30 | 1008.7 |
| 20260504183057 | 74 | 225 | 2.0 | 7.0 | 0.00 | 0.00 | 0.00 | 31 | 1009.0 |
| 20260504181605 | 74 | 310 | 3.0 | 9.0 | 0.00 | 0.00 | 0.00 | 32 | 1009.2 |
| 20260504180208 | 74 | 182 | 3.0 | 10.0 | 0.00 | 0.00 | 0.00 | 32 | 1009.3 |
| 20260504174558 | 73 | 215 | 4.0 | 8.0 | 0.00 | 0.00 | 0.00 | 32 | 1009.5 |
| 20260504173125 | 72 | 178 | 2.0 | 8.0 | 0.00 | 0.00 | 0.00 | 33 | 1009.7 |
| 20260504171602 | 72 | 157 | 2.0 | 11.0 | 0.00 | 0.00 | 0.00 | 36 | 1009.7 |
| 20260504140115 | 61 | 167 | 4.0 | 8.0 | 0.00 | 0.00 | 0.00 | 47 | 1010.3 |
| 20260504120114 | 50 | 111 | 1.0 | 2.0 | 0.00 | 0.00 | 0.00 | 58 | 1010.1 |
| 20260504081600 | 51 | 0 | 0.0 | 2.0 | 0.00 | 0.00 | 0.00 | 45 | 1009.1 |